Regional Weather Roundup
Issued by NWS

Home | Current Version | Previous Version | Text Only | Print | Product List | Glossary On
Versions: 1 2 3 4 5 6 7 8 9 10 11 12 13 14 15 16 17 18 19 20 21 22 23 24 25 26 27 28 29 30 31 32 33 34 35 36 37 38 39 40 41 42 43 44 45 46 47 48 49 50
000
ASUS45 KABQ 010710
RWRNM
NEW MEXICO REGIONAL WEATHER ROUNDUP
NATIONAL WEATHER SERVICE ALBUQUERQUE NM
100 AM MDT SAT AUG 01 2015

NOTE: "FAIR" MEANS FEW OR NO CLOUDS BELOW 12,000 FEET AGL WITH NO
       SIGNIFICANT WEATHER OR OBSTRUCTIONS TO VISION.

      THIS PRODUCT IS RELEASED AS TWO VERSIONS.  ONE VERSION NEAR
      THE TOP OF THE HOUR CONTAINING PRELIMINARY DATA FROM ALBUQUERQUE
      AND OTHER STATIONS.  A FINAL VERSION WITH ADDITIONAL DATA IS
      ISSUED ABOUT 10 MINUTES AFTER THE HOUR.

NMZ501-503-504-510>518-010800-
NORTHWEST PLATEAU/NORTHCENTRAL MOUNTAINS

CITY           SKY/WX    TMP DP  RH WIND       PRES   REMARKS
FARMINGTON     CLOUDY    68  57  68 S3        30.28S
LOS ALAMOS     CLOUDY    63  55  75 CALM      30.44S
SANTA FE       CLOUDY    64  59  83 E7        30.37F
TAOS           CLOUDY    59  48  67 CALM      30.43S
ANGEL FIRE     CLOUDY    53  51  94 CALM      30.52F

$$
NMZ402-403-502-505>509-010800-
WESTCENTRAL MOUNTAINS/SOUTHWEST MOUNTAINS

CITY           SKY/WX    TMP DP  RH WIND       PRES   REMARKS
GALLUP         CLOUDY    61  57  87 CALM      30.35F
GRANTS         CLOUDY    61  58  91 S6        30.38F
SILVER CITY      N/A     66  57  72 NW10      30.27F

$$
NMZ407-409-411-412-010800-
SOUTHERN DESERTS

CITY           SKY/WX    TMP DP  RH WIND       PRES   REMARKS
LORDSBURG      FAIR      70  63  78 NW7       30.20S
DEMING         PTCLDY    72  64  76 CALM      30.17S
LAS CRUCES     PTCLDY    76  58  54 NE6       30.19F
HOLLOMAN AFB   CLOUDY    78  57  48 N9        30.18R
ALAMOGORDO     PTCLDY    75  55  50 NW7       30.20R
T OR C         CLOUDY    69  64  84 NE6       30.27R

$$
NMZ519>523-010800-
CENTRAL VALLEYS/CENTRAL HIGHLANDS

CITY           SKY/WX    TMP DP  RH WIND       PRES   REMARKS
ALBUQUERQUE    CLOUDY    70  59  68 W8        30.31S
DOUBLE EAGLE   CLOUDY    64  60  88 SW6       30.35R
MORIARTY ARPT    N/A     62  57  85 CALM      30.37F
CLINES CORNERS CLOUDY    59  56  89 W8        30.41R
BELEN          PTSUNNY   68  60  77 CALM      30.30S
SOCORRO        RAIN      67  63  86 SE7       30.30R

$$
NMZ524>526-539-540-010800-
SOUTHCENTRAL MOUNTAINS

CITY           SKY/WX    TMP DP  RH WIND       PRES   REMARKS
RUIDOSO          N/A    N/A N/A N/A MISG        N/A

$$
NMZ527>531-010800-
NORTHEAST HIGHLANDS/NORTHEAST PLAINS

CITY           SKY/WX    TMP DP  RH WIND       PRES   REMARKS
LAS VEGAS      CLOUDY    60  56  86 S6        30.39S
RATON          CLOUDY    63  59  87 CALM      30.33F
CLAYTON        PTCLDY    65  64  97 S3        30.26S FOG

$$
NMZ532>537-010800-
EASTCENTRAL PLAINS

CITY           SKY/WX    TMP DP  RH WIND       PRES   REMARKS
TUCUMCARI      CLOUDY    70  66  87 CALM      30.23S
CANNON AFB     CLOUDY    69  67  94 SE7       30.25S
CLOVIS AIRPORT CLOUDY    68  64  88 SE9       30.26S

$$
NMZ028-029-538-010800-
SOUTHEAST PLAINS

CITY           SKY/WX    TMP DP  RH WIND       PRES   REMARKS
ROSWELL        CLOUDY    80  62  54 E14       30.18S
ARTESIA        DRIZZLE   81  66  61 E10G18    30.16F
CARLSBAD       MOCLDY    81  56  42 N5        30.12R
HOBBS          CLEAR     75  63  64 E12       30.19S


$$



USA.gov is the U.S. government's official web portal to all federal, state and local government web resources and services.